When you browse on this site, cookies collect data to enhance your experience and personalize the content and advertising you see.
Visit our Privacy Policy to learn more. By continuing to use the site, you agree to this use of cookies and data.

Hourly Weather Chipping Sodbury

Today, 2 July, Thursday

Time Temperature Precipitation Wind Pressure Humidity
00:00 +10°C° 0 mm 3 mps 746 mmHg 96%
01:00 +10°C° 0 mm 3 mps 746 mmHg 96%
02:00 +10°C° 0 mm 3 mps 746 mmHg 96%
03:00 +10°C° 0 mm 3 mps 746 mmHg 96%
04:00 +11°C° 0 mm 3 mps 746 mmHg 95%
05:00 +11°C° 0 mm 4 mps 747 mmHg 93%
06:00 +13°C° 0 mm 4 mps 747 mmHg 92%
07:00 +13°C° 0.5 mm 5 mps 747 mmHg 90%
08:00 +14°C° 0.5 mm 5 mps 748 mmHg 87%
09:00 +15°C° 0.5 mm 6 mps 748 mmHg 85%
10:00 +16°C° 0.5 mm 6 mps 748 mmHg 83%
11:00 +17°C° 0.5 mm 6 mps 749 mmHg 80%
12:00 +17°C° 0 mm 5 mps 749 mmHg 77%
13:00 +17°C° 0.3 mm 5 mps 749 mmHg 76%
14:00 +19°C° 0.3 mm 6 mps 749 mmHg 76%
15:00 +19°C° 0.3 mm 6 mps 749 mmHg 75%
16:00 +19°C° 0.1 mm 5 mps 750 mmHg 76%
17:00 +17°C° 0.1 mm 5 mps 750 mmHg 77%
18:00 +18°C° 0.1 mm 4 mps 751 mmHg 78%
19:00 +15°C° 0 mm 4 mps 751 mmHg 83%
20:00 +14°C° 0 mm 4 mps 751 mmHg 87%
21:00 +12°C° 0 mm 4 mps 752 mmHg 91%
22:00 +12°C° 0 mm 3 mps 752 mmHg 91%
23:00 +11°C° 0 mm 3 mps 752 mmHg 92%

Tomorrow, 3 July, Friday

Time Temperature Precipitation Wind Pressure Humidity
00:00 +11°C° 0 mm 3 mps 752 mmHg 92%
01:00 +11°C° 0 mm 3 mps 752 mmHg 93%
02:00 +10°C° 0 mm 3 mps 752 mmHg 93%
03:00 +10°C° 0 mm 3 mps 752 mmHg 94%
04:00 +11°C° 0 mm 4 mps 752 mmHg 92%
05:00 +11°C° 0 mm 4 mps 752 mmHg 91%
06:00 +12°C° 0 mm 5 mps 752 mmHg 89%
07:00 +13°C° 0 mm 5 mps 752 mmHg 86%
08:00 +13°C° 0 mm 6 mps 752 mmHg 83%
09:00 +14°C° 0 mm 7 mps 752 mmHg 80%
10:00 +14°C° 0 mm 7 mps 752 mmHg 79%
11:00 +15°C° 0 mm 7 mps 752 mmHg 79%
12:00 +15°C° 0 mm 8 mps 752 mmHg 79%
13:00 +15°C° 0.1 mm 8 mps 752 mmHg 81%
14:00 +15°C° 0.1 mm 8 mps 751 mmHg 82%
15:00 +15°C° 0.1 mm 8 mps 751 mmHg 83%
16:00 +15°C° 0.3 mm 8 mps 751 mmHg 86%
17:00 +14°C° 0.3 mm 7 mps 751 mmHg 89%
18:00 +14°C° 0.3 mm 7 mps 751 mmHg 92%
19:00 +14°C° 0.2 mm 7 mps 751 mmHg 93%
20:00 +14°C° 0.2 mm 7 mps 751 mmHg 93%
21:00 +14°C° 0.2 mm 7 mps 751 mmHg 94%
22:00 +15°C° 0.1 mm 7 mps 750 mmHg 94%
23:00 +15°C° 0.1 mm 6 mps 750 mmHg 95%

Day after tomorrow, 4 July, Saturday

Time Temperature Precipitation Wind Pressure Humidity
00:00 +15°C° 0.1 mm 6 mps 750 mmHg 95%
01:00 +15°C° 0.3 mm 6 mps 750 mmHg 95%
02:00 +15°C° 0.3 mm 6 mps 749 mmHg 95%
03:00 +15°C° 0.3 mm 6 mps 749 mmHg 96%
04:00 +16°C° 0.9 mm 6 mps 749 mmHg 96%
05:00 +16°C° 0.9 mm 6 mps 749 mmHg 96%
06:00 +16°C° 0.9 mm 6 mps 748 mmHg 96%
07:00 +16°C° 0.6 mm 6 mps 748 mmHg 96%
08:00 +16°C° 0.6 mm 6 mps 748 mmHg 96%
09:00 +16°C° 0.6 mm 6 mps 748 mmHg 96%
10:00 +17°C° 0.1 mm 7 mps 748 mmHg 94%
11:00 +17°C° 0.1 mm 7 mps 748 mmHg 92%
12:00 +18°C° 0.1 mm 8 mps 748 mmHg 90%
13:00 +17°C° 0 mm 8 mps 748 mmHg 90%
14:00 +17°C° 0 mm 7 mps 748 mmHg 91%
15:00 +16°C° 0 mm 7 mps 748 mmHg 91%
16:00 +16°C° 0 mm 7 mps 748 mmHg 91%
17:00 +16°C° 0 mm 7 mps 748 mmHg 91%
18:00 +17°C° 0 mm 6 mps 748 mmHg 91%
19:00 +16°C° 0 mm 6 mps 749 mmHg 91%
20:00 +16°C° 0 mm 6 mps 749 mmHg 90%
21:00 +16°C° 0 mm 6 mps 749 mmHg 90%
22:00 +16°C° 0 mm 7 mps 749 mmHg 89%
23:00 +15°C° 0 mm 7 mps 749 mmHg 89%

5 July, Sunday

Time Temperature Precipitation Wind Pressure Humidity
00:00 +15°C° 0 mm 7 mps 749 mmHg 88%
01:00 +15°C° 0 mm 7 mps 748 mmHg 88%
02:00 +16°C° 0 mm 7 mps 748 mmHg 87%
03:00 +16°C° 0 mm 7 mps 748 mmHg 86%
04:00 +16°C° 0.3 mm 8 mps 747 mmHg 88%
05:00 +16°C° 0.3 mm 9 mps 747 mmHg 90%
06:00 +16°C° 0.3 mm 9 mps 747 mmHg 93%
07:00 +16°C° 0.1 mm 9 mps 747 mmHg 91%
08:00 +16°C° 0.1 mm 9 mps 747 mmHg 90%
09:00 +16°C° 0.1 mm 9 mps 747 mmHg 88%
10:00 +17°C° 0.1 mm 9 mps 747 mmHg 82%
11:00 +17°C° 0.1 mm 10 mps 748 mmHg 76%
12:00 +18°C° 0.1 mm 10 mps 748 mmHg 69%
13:00 +17°C° 0 mm 10 mps 748 mmHg 68%
14:00 +17°C° 0 mm 9 mps 748 mmHg 67%
15:00 +16°C° 0 mm 9 mps 749 mmHg 66%
16:00 +16°C° 0 mm 9 mps 749 mmHg 68%
17:00 +15°C° 0 mm 8 mps 749 mmHg 69%
18:00 +13°C° 0 mm 8 mps 749 mmHg 71%
19:00 +12°C° 0 mm 7 mps 749 mmHg 73%
20:00 +12°C° 0 mm 7 mps 750 mmHg 75%
21:00 +11°C° 0 mm 6 mps 750 mmHg 77%
22:00 +10°C° 0 mm 6 mps 750 mmHg 77%
23:00 +10°C° 0 mm 6 mps 750 mmHg 77%

6 July, Monday

Time Temperature Precipitation Wind Pressure Humidity
00:00 +10°C° 0 mm 6 mps 750 mmHg 77%
01:00 +10°C° 0 mm 6 mps 750 mmHg 78%
02:00 +10°C° 0 mm 6 mps 750 mmHg 79%
03:00 +9°C° 0 mm 6 mps 750 mmHg 79%
04:00 +10°C° 0 mm 6 mps 751 mmHg 80%
05:00 +10°C° 0 mm 6 mps 751 mmHg 80%
06:00 +10°C° 0 mm 6 mps 752 mmHg 81%
07:00 +11°C° 0 mm 6 mps 752 mmHg 77%
08:00 +12°C° 0 mm 7 mps 753 mmHg 73%
09:00 +14°C° 0 mm 7 mps 754 mmHg 69%
10:00 +15°C° 0 mm 7 mps 754 mmHg 67%
11:00 +16°C° 0 mm 7 mps 755 mmHg 64%
12:00 +17°C° 0 mm 6 mps 756 mmHg 62%
13:00 +17°C° 0 mm 6 mps 756 mmHg 62%
14:00 +17°C° 0 mm 6 mps 756 mmHg 63%
15:00 +17°C° 0 mm 6 mps 757 mmHg 63%
16:00 +16°C° 0 mm 5 mps 757 mmHg 65%
17:00 +16°C° 0 mm 5 mps 757 mmHg 66%
18:00 +15°C° 0 mm 4 mps 758 mmHg 68%
19:00 +14°C° 0 mm 4 mps 758 mmHg 73%
20:00 +12°C° 0 mm 3 mps 758 mmHg 78%
21:00 +10°C° 0 mm 2 mps 759 mmHg 83%
22:00 +10°C° 0 mm 2 mps 759 mmHg 84%
23:00 +10°C° 0 mm 1 mps 759 mmHg 86%

7 July, Tuesday

Time Temperature Precipitation Wind Pressure Humidity
00:00 +10°C° 0 mm 1 mps 759 mmHg 87%
01:00 +9°C° 0 mm 1 mps 759 mmHg 87%
02:00 +8°C° 0 mm 0 mps 759 mmHg 87%
03:00 +8°C° 0 mm 0 mps 759 mmHg 87%
04:00 +9°C° 0 mm 0 mps 759 mmHg 85%
05:00 +9°C° 0 mm 0 mps 759 mmHg 83%
06:00 +10°C° 0 mm 0 mps 759 mmHg 81%
07:00 +13°C° 0 mm 1 mps 759 mmHg 76%
08:00 +15°C° 0 mm 1 mps 759 mmHg 70%
09:00 +16°C° 0 mm 1 mps 759 mmHg 65%
10:00 +17°C° 0 mm 2 mps 759 mmHg 63%
11:00 +18°C° 0 mm 2 mps 759 mmHg 62%
12:00 +19°C° 0 mm 2 mps 759 mmHg 61%
13:00 +19°C° 0 mm 3 mps 759 mmHg 61%
14:00 +19°C° 0 mm 3 mps 759 mmHg 62%
15:00 +20°C° 0 mm 3 mps 759 mmHg 62%
16:00 +19°C° 0 mm 3 mps 759 mmHg 65%
17:00 +19°C° 0 mm 3 mps 758 mmHg 69%
18:00 +19°C° 0 mm 3 mps 758 mmHg 72%
19:00 +17°C° 0 mm 3 mps 758 mmHg 77%
20:00 +15°C° 0 mm 2 mps 758 mmHg 81%
21:00 +14°C° 0 mm 2 mps 758 mmHg 86%
22:00 +13°C° 0 mm 2 mps 758 mmHg 86%
23:00 +12°C° 0 mm 2 mps 758 mmHg 86%
Show more